| time (UTC) | temp C | wind direction | speed KPH | gust KPH | rain 1hr cm | rain 24hr cm | rain mn cm | humidity % | barometer mb |
| 20260508222804 | 18 | 69 | 1.6 | 4.8 | 0.00 | 0.00 | 0.00 | 81 | 1012.2 |
| 20260508222306 | 18 | 69 | 3.2 | 4.8 | 0.00 | 0.00 | 0.00 | 81 | 1012.2 |
| 20260508221304 | 18 | 69 | 1.6 | 4.8 | 0.00 | 0.00 | 0.00 | 81 | 1012.3 |
| 20260508220819 | 18 | 69 | 1.6 | 4.8 | 0.00 | 0.00 | 0.00 | 81 | 1012.4 |
| 20260508220305 | 18 | 69 | 1.6 | 4.8 | 0.00 | 0.00 | 0.00 | 81 | 1012.4 |
| 20260508215803 | 18 | 69 | 1.6 | 8.0 | 0.00 | 0.00 | 0.00 | 81 | 1012.4 |
| 20260508215306 | 18 | 114 | 1.6 | 8.0 | 0.00 | 0.00 | 0.00 | 80 | 1012.5 |
| 20260508214304 | 18 | 130 | 1.6 | 4.8 | 0.00 | 0.00 | 0.00 | 80 | 1012.4 |
| 20260508213303 | 18 | 130 | 4.8 | 8.0 | 0.00 | 0.00 | 0.00 | 80 | 1012.5 |
| 20260508212804 | 18 | 126 | 3.2 | 8.0 | 0.00 | 0.00 | 0.00 | 80 | 1012.5 |
| 20260508212306 | 18 | 129 | 1.6 | 8.0 | 0.00 | 0.00 | 0.00 | 80 | 1012.4 |
| 20260508211304 | 18 | 126 | 1.6 | 8.0 | 0.00 | 0.00 | 0.00 | 80 | 1012.3 |
| 20260508210803 | 18 | 131 | 1.6 | 4.8 | 0.00 | 0.00 | 0.00 | 79 | 1012.3 |
| 20260508210304 | 18 | 116 | 3.2 | 8.0 | 0.00 | 0.00 | 0.00 | 79 | 1012.3 |
| 20260508205804 | 18 | 131 | 3.2 | 9.7 | 0.00 | 0.00 | 0.00 | 79 | 1012.3 |
| 20260508205306 | 18 | 130 | 3.2 | 4.8 | 0.00 | 0.00 | 0.00 | 79 | 1012.3 |
| 20260508204304 | 18 | 130 | 3.2 | 8.0 | 0.00 | 0.00 | 0.00 | 78 | 1012.3 |
| 20260508203304 | 18 | 130 | 4.8 | 9.7 | 0.00 | 0.00 | 0.00 | 77 | 1012.3 |
| 20260508202804 | 18 | 130 | 4.8 | 9.7 | 0.00 | 0.00 | 0.00 | 77 | 1012.1 |
| 20260508202306 | 18 | 127 | 3.2 | 9.7 | 0.00 | 0.00 | 0.00 | 77 | 1012.1 |
| 20260508201804 | 18 | 127 | 4.8 | 9.7 | 0.00 | 0.00 | 0.00 | 77 | 1012.0 |
| 20260508201304 | 18 | 126 | 8.0 | 14.5 | 0.00 | 0.00 | 0.00 | 77 | 1011.8 |
| 20260508200803 | 18 | 112 | 4.8 | 9.7 | 0.00 | 0.00 | 0.00 | 77 | 1011.8 |
| 20260508200303 | 18 | 128 | 3.2 | 8.0 | 0.00 | 0.00 | 0.00 | 77 | 1011.8 |
| 20260508195804 | 18 | 101 | 6.4 | 9.7 | 0.00 | 0.00 | 0.00 | 77 | 1011.8 |
| 20260508195306 | 18 | 121 | 8.0 | 11.3 | 0.00 | 0.00 | 0.00 | 77 | 1011.8 |
| 20260508194804 | 18 | 128 | 3.2 | 11.3 | 0.00 | 0.00 | 0.00 | 77 | 1011.7 |
| 20260508194304 | 18 | 142 | 8.0 | 12.9 | 0.00 | 0.03 | 0.00 | 76 | 1011.7 |
| 20260508193803 | 18 | 102 | 8.0 | 12.9 | 0.00 | 0.03 | 0.00 | 76 | 1011.6 |
| 20260508193304 | 18 | 135 | 8.0 | 11.3 | 0.00 | 0.03 | 0.00 | 76 | 1011.6 |
| 20260508192306 | 19 | 134 | 8.0 | 12.9 | 0.00 | 0.03 | 0.00 | 76 | 1011.6 |
| 20260508191804 | 19 | 141 | 8.0 | 11.3 | 0.00 | 0.03 | 0.00 | 75 | 1011.6 |
| 20260508191305 | 19 | 106 | 9.7 | 12.9 | 0.00 | 0.05 | 0.00 | 75 | 1011.5 |
| 20260508190803 | 19 | 146 | 8.0 | 12.9 | 0.00 | 0.05 | 0.00 | 75 | 1011.4 |
| 20260508190304 | 19 | 141 | 9.7 | 11.3 | 0.00 | 0.05 | 0.00 | 75 | 1011.3 |
| 20260508185306 | 19 | 103 | 9.7 | 16.1 | 0.00 | 0.05 | 0.00 | 75 | 1011.3 |
| 20260508184804 | 20 | 89 | 8.0 | 14.5 | 0.00 | 0.05 | 0.00 | 75 | 1011.2 |
| 20260508184304 | 20 | 128 | 9.7 | 14.5 | 0.00 | 0.05 | 0.00 | 74 | 1011.2 |
| 20260508183803 | 20 | 131 | 8.0 | 12.9 | 0.00 | 0.05 | 0.00 | 74 | 1011.1 |
| 20260508182803 | 20 | 122 | 9.7 | 14.5 | 0.00 | 0.05 | 0.00 | 73 | 1011.0 |
| 20260508182306 | 20 | 131 | 8.0 | 12.9 | 0.00 | 0.05 | 0.00 | 72 | 1010.9 |
| 20260508181804 | 20 | 125 | 8.0 | 16.1 | 0.00 | 0.05 | 0.00 | 72 | 1010.9 |
| 20260508181304 | 20 | 122 | 4.8 | 11.3 | 0.00 | 0.05 | 0.00 | 71 | 1010.7 |
| 20260508180804 | 20 | 141 | 8.0 | 14.5 | 0.00 | 0.05 | 0.00 | 70 | 1010.7 |
| 20260508180304 | 20 | 77 | 9.7 | 14.5 | 0.00 | 0.05 | 0.00 | 69 | 1010.7 |
| 20260508175803 | 20 | 99 | 8.0 | 14.5 | 0.00 | 0.05 | 0.00 | 68 | 1010.8 |
| 20260508175306 | 20 | 85 | 11.3 | 19.3 | 0.00 | 0.05 | 0.00 | 67 | 1010.8 |
| 20260508174804 | 20 | 93 | 9.7 | 19.3 | 0.00 | 0.05 | 0.00 | 65 | 1010.9 |
| 20260508174304 | 21 | 121 | 11.3 | 14.5 | 0.00 | 0.05 | 0.00 | 66 | 1010.9 |
| 20260508173805 | 21 | 117 | 8.0 | 14.5 | 0.00 | 0.05 | 0.00 | 65 | 1010.9 |
| 20260508173304 | 21 | 116 | 8.0 | 12.9 | 0.00 | 0.05 | 0.00 | 65 | 1010.8 |
| 20260508172307 | 21 | 102 | 8.0 | 12.9 | 0.00 | 0.05 | 0.00 | 66 | 1010.8 |
| 20260508171805 | 21 | 72 | 4.8 | 14.5 | 0.00 | 0.05 | 0.00 | 65 | 1010.8 |
| 20260508171304 | 21 | 67 | 9.7 | 14.5 | 0.00 | 0.05 | 0.00 | 64 | 1010.7 |
| 20260508165804 | 22 | 89 | 8.0 | 12.9 | 0.00 | 0.05 | 0.00 | 61 | 1010.8 |
| 20260508165306 | 22 | 96 | 9.7 | 19.3 | 0.00 | 0.05 | 0.00 | 61 | 1010.8 |
| 20260508164805 | 22 | 87 | 8.0 | 12.9 | 0.00 | 0.05 | 0.00 | 63 | 1010.8 |
| 20260508163805 | 21 | 58 | 6.4 | 11.3 | 0.00 | 0.05 | 0.00 | 65 | 1010.7 |
| 20260508163305 | 21 | 44 | 9.7 | 19.3 | 0.00 | 0.05 | 0.00 | 63 | 1010.8 |
| 20260508162307 | 22 | 112 | 8.0 | 12.9 | 0.00 | 0.05 | 0.00 | 63 | 1010.9 |
| 20260508161805 | 22 | 103 | 9.7 | 12.9 | 0.00 | 0.05 | 0.00 | 63 | 1010.8 |
| 20260508161304 | 22 | 106 | 9.7 | 19.3 | 0.00 | 0.05 | 0.00 | 63 | 1010.7 |
| 20260508160804 | 22 | 58 | 8.0 | 16.1 | 0.00 | 0.05 | 0.00 | 63 | 1010.7 |
| 20260508160305 | 22 | 62 | 6.4 | 12.9 | 0.00 | 0.05 | 0.00 | 62 | 1010.7 |
| 20260508155804 | 22 | 93 | 3.2 | 9.7 | 0.00 | 0.05 | 0.00 | 64 | 1010.6 |
| 20260508155306 | 22 | 56 | 6.4 | 16.1 | 0.00 | 0.05 | 0.00 | 63 | 1010.7 |
| 20260508154805 | 22 | 95 | 4.8 | 9.7 | 0.00 | 0.05 | 0.00 | 65 | 1010.6 |
| 20260508154305 | 21 | 95 | 6.4 | 16.1 | 0.00 | 0.05 | 0.00 | 66 | 1010.5 |
| 20260508153805 | 21 | 80 | 8.0 | 20.9 | 0.00 | 0.05 | 0.00 | 68 | 1010.3 |
| 20260508153304 | 21 | 19 | 6.4 | 14.5 | 0.00 | 0.05 | 0.00 | 67 | 1010.4 |
| 20260508152306 | 21 | 61 | 6.4 | 12.9 | 0.00 | 0.05 | 0.00 | 67 | 1010.4 |
| 20260508151805 | 21 | 61 | 4.8 | 12.9 | 0.00 | 0.05 | 0.00 | 68 | 1010.5 |
| 20260508151304 | 22 | 73 | 9.7 | 14.5 | 0.00 | 0.05 | 0.00 | 67 | 1010.6 |
| 20260508150304 | 22 | 82 | 6.4 | 14.5 | 0.00 | 0.05 | 0.00 | 65 | 1010.6 |
| 20260508145804 | 22 | 66 | 8.0 | 16.1 | 0.00 | 0.05 | 0.00 | 63 | 1010.6 |
| 20260508145306 | 22 | 63 | 9.7 | 20.9 | 0.00 | 0.05 | 0.00 | 61 | 1010.4 |
| 20260508143304 | 21 | 84 | 4.8 | 14.5 | 0.00 | 0.05 | 0.00 | 63 | 1011.1 |
| 20260508142804 | 21 | 77 | 3.2 | 12.9 | 0.00 | 0.05 | 0.00 | 63 | 1011.2 |
| 20260508142306 | 21 | 69 | 8.0 | 12.9 | 0.00 | 0.05 | 0.00 | 62 | 1011.2 |
| 20260508141805 | 21 | 60 | 6.4 | 11.3 | 0.00 | 0.05 | 0.00 | 63 | 1011.2 |
| 20260508141304 | 21 | 63 | 8.0 | 12.9 | 0.00 | 0.05 | 0.00 | 62 | 1011.3 |
| 20260508140805 | 22 | 41 | 6.4 | 19.3 | 0.00 | 0.05 | 0.00 | 62 | 1011.3 |
| 20260508140304 | 22 | 27 | 4.8 | 12.9 | 0.00 | 0.05 | 0.00 | 62 | 1011.3 |
| 20260508135804 | 22 | 51 | 8.0 | 12.9 | 0.00 | 0.05 | 0.00 | 61 | 1011.4 |
| 20260508135306 | 22 | 68 | 3.2 | 11.3 | 0.00 | 0.05 | 0.00 | 63 | 1011.5 |
| 20260508134804 | 22 | 52 | 8.0 | 14.5 | 0.00 | 0.05 | 0.00 | 62 | 1011.5 |
| 20260508134305 | 22 | 354 | 4.8 | 9.7 | 0.00 | 0.05 | 0.00 | 64 | 1011.6 |
| 20260508133805 | 21 | 82 | 3.2 | 11.3 | 0.00 | 0.05 | 0.00 | 65 | 1011.6 |
| 20260508133304 | 21 | 79 | 9.7 | 16.1 | 0.00 | 0.05 | 0.00 | 66 | 1011.7 |
| 20260508132804 | 21 | 66 | 4.8 | 8.0 | 0.00 | 0.05 | 0.00 | 65 | 1011.8 |
| 20260508132306 | 21 | 55 | 4.8 | 14.5 | 0.00 | 0.05 | 0.00 | 66 | 1012.0 |
| 20260508131804 | 21 | 18 | 6.4 | 11.3 | 0.00 | 0.05 | 0.00 | 66 | 1012.0 |
| 20260508131305 | 21 | 9 | 4.8 | 12.9 | 0.00 | 0.05 | 0.00 | 65 | 1012.0 |
| 20260508130805 | 21 | 86 | 4.8 | 11.3 | 0.00 | 0.05 | 0.00 | 67 | 1012.0 |
| 20260508130305 | 21 | 34 | 6.4 | 11.3 | 0.00 | 0.05 | 0.00 | 67 | 1012.1 |
| 20260508125804 | 20 | 92 | 3.2 | 9.7 | 0.00 | 0.05 | 0.00 | 68 | 1012.1 |
| 20260508124805 | 20 | 31 | 6.4 | 14.5 | 0.00 | 0.05 | 0.00 | 68 | 1011.9 |
| 20260508124304 | 20 | 33 | 8.0 | 12.9 | 0.00 | 0.05 | 0.00 | 68 | 1012.0 |
| 20260508123305 | 20 | 342 | 3.2 | 9.7 | 0.00 | 0.05 | 0.00 | 69 | 1012.1 |
| 20260508122804 | 20 | 334 | 6.4 | 9.7 | 0.00 | 0.05 | 0.00 | 68 | 1012.3 |
| 20260508122307 | 20 | 2 | 4.8 | 11.3 | 0.00 | 0.05 | 0.00 | 67 | 1012.3 |
| 20260508121804 | 21 | 347 | 3.2 | 12.9 | 0.00 | 0.05 | 0.00 | 67 | 1012.4 |
| 20260508121305 | 21 | 5 | 4.8 | 9.7 | 0.00 | 0.05 | 0.00 | 67 | 1012.4 |
| 20260508120304 | 20 | 17 | 4.8 | 9.7 | 0.00 | 0.05 | 0.00 | 69 | 1012.4 |
| 20260508115805 | 20 | 14 | 3.2 | 4.8 | 0.00 | 0.05 | 0.00 | 69 | 1012.4 |
| 20260508115306 | 20 | 5 | 6.4 | 9.7 | 0.00 | 0.05 | 0.00 | 71 | 1012.5 |
| 20260508114805 | 19 | 261 | 3.2 | 8.0 | 0.00 | 0.05 | 0.00 | 73 | 1012.5 |
| 20260508114304 | 18 | 258 | 3.2 | 8.0 | 0.00 | 0.05 | 0.00 | 74 | 1012.6 |
| 20260508113805 | 18 | 251 | 3.2 | 4.8 | 0.00 | 0.05 | 0.00 | 73 | 1012.7 |
| 20260508113305 | 18 | 251 | 1.6 | 4.8 | 0.00 | 0.05 | 0.00 | 73 | 1012.8 |
| 20260508112804 | 18 | 251 | 1.6 | 4.8 | 0.00 | 0.05 | 0.00 | 73 | 1012.7 |
| 20260508112307 | 18 | 285 | 4.8 | 9.7 | 0.00 | 0.05 | 0.00 | 73 | 1012.7 |
| 20260508111804 | 18 | 349 | 3.2 | 4.8 | 0.00 | 0.05 | 0.00 | 73 | 1012.6 |
| 20260508111305 | 18 | 348 | 3.2 | 4.8 | 0.00 | 0.05 | 0.00 | 73 | 1012.6 |
| 20260508110805 | 18 | 351 | 3.2 | 8.0 | 0.00 | 0.05 | 0.00 | 73 | 1012.5 |
| 20260508110304 | 18 | 352 | 4.8 | 11.3 | 0.00 | 0.05 | 0.00 | 73 | 1012.2 |
| 20260508105804 | 18 | 336 | 4.8 | 8.0 | 0.00 | 0.05 | 0.00 | 74 | 1012.3 |
| 20260508105306 | 18 | 299 | 3.2 | 8.0 | 0.00 | 0.05 | 0.00 | 74 | 1012.3 |
| 20260508104805 | 18 | 46 | 3.2 | 4.8 | 0.00 | 0.05 | 0.00 | 74 | 1012.3 |
| 20260508104305 | 18 | 47 | 1.6 | 4.8 | 0.00 | 0.05 | 0.00 | 74 | 1012.4 |
| 20260508103304 | 18 | 46 | 3.2 | 4.8 | 0.00 | 0.05 | 0.00 | 74 | 1012.7 |
| 20260508102805 | 18 | 46 | 1.6 | 8.0 | 0.00 | 0.05 | 0.00 | 74 | 1012.7 |
| 20260508102306 | 18 | 42 | 4.8 | 8.0 | 0.00 | 0.05 | 0.00 | 74 | 1012.7 |
| 20260508101305 | 18 | 47 | 4.8 | 4.8 | 0.00 | 0.08 | 0.00 | 74 | 1012.7 |
| 20260508100804 | 18 | 48 | 4.8 | 8.0 | 0.00 | 0.08 | 0.00 | 74 | 1012.8 |
| 20260508100304 | 18 | 47 | 0.0 | 4.8 | 0.00 | 0.08 | 0.00 | 74 | 1013.0 |
| 20260508095804 | 18 | 47 | 1.6 | 3.2 | 0.00 | 0.36 | 0.00 | 73 | 1013.0 |
| 20260508095306 | 18 | 48 | 0.0 | 4.8 | 0.00 | 0.38 | 0.00 | 73 | 1012.9 |
| 20260508094804 | 18 | 43 | 3.2 | 4.8 | 0.00 | 0.38 | 0.00 | 73 | 1012.7 |
| 20260508093805 | 18 | 46 | 3.2 | 8.0 | 0.00 | 0.38 | 0.00 | 73 | 1012.4 |
| 20260508093304 | 18 | 47 | 6.4 | 9.7 | 0.00 | 0.38 | 0.00 | 73 | 1012.3 |
| 20260508092804 | 18 | 242 | 3.2 | 4.8 | 0.00 | 0.38 | 0.00 | 73 | 1012.4 |
| 20260508091805 | 18 | 236 | 1.6 | 4.8 | 0.00 | 0.38 | 0.00 | 72 | 1012.4 |
| 20260508091304 | 18 | 236 | 3.2 | 4.8 | 0.00 | 0.38 | 0.00 | 72 | 1012.4 |
| 20260508090304 | 18 | 236 | 3.2 | 8.0 | 0.00 | 0.38 | 0.00 | 72 | 1012.5 |
| 20260508085804 | 18 | 259 | 3.2 | 9.7 | 0.00 | 0.38 | 0.00 | 73 | 1012.7 |
| 20260508085307 | 18 | 248 | 4.8 | 9.7 | 0.00 | 0.38 | 0.00 | 75 | 1012.7 |
| 20260508084805 | 17 | 266 | 4.8 | 9.7 | 0.00 | 0.38 | 0.00 | 76 | 1012.6 |
| 20260508084304 | 17 | 244 | 3.2 | 8.0 | 0.00 | 0.38 | 0.00 | 77 | 1012.6 |
| 20260508083805 | 17 | 246 | 3.2 | 8.0 | 0.00 | 0.38 | 0.00 | 77 | 1012.5 |
| 20260508083304 | 17 | 241 | 3.2 | 8.0 | 0.00 | 0.38 | 0.00 | 77 | 1012.4 |
| 20260508082805 | 17 | 233 | 4.8 | 9.7 | 0.00 | 0.38 | 0.00 | 77 | 1012.2 |
| 20260508082306 | 17 | 251 | 3.2 | 11.3 | 0.00 | 0.38 | 0.00 | 79 | 1012.2 |
| 20260508081804 | 17 | 285 | 4.8 | 11.3 | 0.00 | 0.38 | 0.00 | 80 | 1012.1 |
| 20260508081304 | 17 | 235 | 3.2 | 8.0 | 0.00 | 0.38 | 0.00 | 81 | 1012.1 |
| 20260508080804 | 16 | 246 | 3.2 | 8.0 | 0.00 | 0.38 | 0.00 | 81 | 1012.2 |
| 20260508080304 | 16 | 259 | 3.2 | 9.7 | 0.00 | 0.38 | 0.00 | 80 | 1012.1 |
| 20260508075804 | 16 | 288 | 3.2 | 4.8 | 0.00 | 0.38 | 0.00 | 80 | 1012.2 |
| 20260508075308 | 16 | 285 | 4.8 | 8.0 | 0.00 | 0.38 | 0.00 | 80 | 1012.1 |
| 20260508074804 | 16 | 329 | 4.8 | 8.0 | 0.00 | 0.38 | 0.00 | 80 | 1012.1 |
| 20260508073804 | 16 | 277 | 8.0 | 9.7 | 0.00 | 0.38 | 0.00 | 81 | 1012.0 |
| 20260508072804 | 16 | 241 | 3.2 | 8.0 | 0.00 | 0.38 | 0.00 | 82 | 1012.2 |
| 20260508072307 | 15 | 265 | 4.8 | 8.0 | 0.00 | 0.38 | 0.00 | 82 | 1012.2 |
| 20260508065804 | 14 | 326 | 4.8 | 8.0 | 0.00 | 0.38 | 0.00 | 85 | 1012.1 |
| 20260508064804 | 14 | 315 | 4.8 | 9.7 | 0.00 | 0.38 | 0.00 | 86 | 1012.0 |
| 20260508063804 | 14 | 352 | 3.2 | 4.8 | 0.00 | 0.38 | 0.00 | 87 | 1011.9 |
| 20260508063304 | 14 | 259 | 1.6 | 4.8 | 0.00 | 0.38 | 0.00 | 87 | 1011.8 |
| 20260508062804 | 14 | 265 | 4.8 | 8.0 | 0.00 | 0.38 | 0.00 | 87 | 1011.7 |
| 20260508062306 | 13 | 291 | 3.2 | 11.3 | 0.00 | 0.38 | 0.00 | 87 | 1011.5 |
| 20260508061804 | 13 | 236 | 3.2 | 4.8 | 0.00 | 0.38 | 0.00 | 87 | 1011.7 |
| 20260508061304 | 13 | 235 | 1.6 | 4.8 | 0.00 | 0.38 | 0.00 | 88 | 1011.7 |
| 20260508060805 | 13 | 236 | 1.6 | 4.8 | 0.00 | 0.38 | 0.00 | 88 | 1011.6 |
| 20260508060304 | 13 | 236 | 3.2 | 4.8 | 0.00 | 0.38 | 0.00 | 88 | 1011.6 |
| 20260508055804 | 13 | 235 | 3.2 | 4.8 | 0.00 | 0.38 | 0.00 | 88 | 1011.5 |
| 20260508055306 | 13 | 238 | 3.2 | 4.8 | 0.00 | 0.38 | 0.00 | 88 | 1011.7 |
| 20260508054804 | 13 | 235 | 1.6 | 4.8 | 0.00 | 0.38 | 0.00 | 88 | 1011.5 |
| 20260508054305 | 13 | 235 | 3.2 | 4.8 | 0.00 | 0.38 | 0.00 | 88 | 1011.4 |
| 20260508053804 | 13 | 246 | 3.2 | 8.0 | 0.00 | 0.38 | 0.00 | 88 | 1011.3 |
| 20260508053304 | 13 | 234 | 4.8 | 9.7 | 0.00 | 0.38 | 0.00 | 88 | 1011.1 |
| 20260508052804 | 13 | 234 | 3.2 | 4.8 | 0.00 | 0.38 | 0.00 | 89 | 1011.1 |
| 20260508052307 | 13 | 238 | 3.2 | 9.7 | 0.00 | 0.38 | 0.00 | 89 | 1011.1 |
| 20260508051804 | 13 | 252 | 3.2 | 4.8 | 0.00 | 0.38 | 0.00 | 89 | 1010.9 |
| 20260508051305 | 13 | 251 | 1.6 | 4.8 | 0.00 | 0.38 | 0.00 | 89 | 1010.7 |
| 20260508050804 | 13 | 250 | 3.2 | 4.8 | 0.00 | 0.38 | 0.00 | 88 | 1010.8 |
| 20260508050304 | 13 | 258 | 3.2 | 8.0 | 0.00 | 0.38 | 0.00 | 88 | 1010.7 |
| 20260508045804 | 13 | 253 | 4.8 | 4.8 | 0.00 | 0.38 | 0.00 | 88 | 1010.7 |
| 20260508045307 | 13 | 252 | 3.2 | 4.8 | 0.00 | 0.38 | 0.00 | 88 | 1010.7 |
| 20260508044804 | 13 | 271 | 3.2 | 4.8 | 0.00 | 0.38 | 0.00 | 88 | 1010.5 |
| 20260508044305 | 13 | 251 | 3.2 | 4.8 | 0.00 | 0.38 | 0.00 | 88 | 1010.6 |
| 20260508043804 | 13 | 251 | 1.6 | 4.8 | 0.00 | 0.38 | 0.00 | 88 | 1010.6 |
| 20260508043304 | 13 | 252 | 1.6 | 4.8 | 0.00 | 0.38 | 0.00 | 88 | 1010.5 |
| 20260508042804 | 13 | 251 | 1.6 | 4.8 | 0.00 | 0.38 | 0.00 | 88 | 1010.5 |
| 20260508041804 | 13 | 237 | 1.6 | 4.8 | 0.00 | 0.38 | 0.00 | 88 | 1010.4 |
| 20260508041304 | 13 | 237 | 3.2 | 9.7 | 0.00 | 0.38 | 0.00 | 88 | 1010.5 |
| 20260508040804 | 13 | 235 | 1.6 | 8.0 | 0.00 | 0.38 | 0.00 | 88 | 1010.6 |
| 20260508035804 | 13 | 244 | 3.2 | 4.8 | 0.00 | 0.38 | 0.00 | 88 | 1010.5 |
| 20260508035306 | 13 | 244 | 1.6 | 4.8 | 0.00 | 0.38 | 0.00 | 88 | 1010.5 |
| 20260508034804 | 13 | 244 | 3.2 | 4.8 | 0.00 | 0.38 | 0.00 | 88 | 1010.5 |
| 20260508034304 | 13 | 244 | 3.2 | 4.8 | 0.00 | 0.38 | 0.00 | 87 | 1010.5 |
| 20260508033804 | 13 | 244 | 1.6 | 4.8 | 0.00 | 0.38 | 0.00 | 87 | 1010.5 |
| 20260508031804 | 13 | 244 | 3.2 | 4.8 | 0.00 | 0.38 | 0.00 | 88 | 1010.5 |
| 20260508031304 | 13 | 244 | 1.6 | 3.2 | 0.00 | 0.38 | 0.00 | 88 | 1010.6 |
| 20260508030804 | 13 | 244 | 3.2 | 4.8 | 0.00 | 0.38 | 0.00 | 88 | 1010.7 |
| 20260508030304 | 13 | 244 | 0.0 | 3.2 | 0.00 | 0.38 | 0.00 | 88 | 1010.7 |
| 20260508025804 | 13 | 244 | 0.0 | 4.8 | 0.00 | 0.38 | 0.00 | 88 | 1010.7 |
| 20260508024804 | 13 | 244 | 1.6 | 8.0 | 0.00 | 0.38 | 0.00 | 88 | 1010.8 |
| 20260508023804 | 13 | 244 | 1.6 | 4.8 | 0.00 | 0.38 | 0.00 | 88 | 1011.0 |
| 20260508023304 | 13 | 244 | 1.6 | 4.8 | 0.00 | 0.38 | 0.00 | 88 | 1011.0 |
| 20260508022804 | 13 | 244 | 1.6 | 4.8 | 0.00 | 0.38 | 0.00 | 88 | 1011.0 |
| 20260508022307 | 13 | 244 | 1.6 | 4.8 | 0.00 | 0.38 | 0.00 | 88 | 1010.9 |
| 20260508021804 | 13 | 244 | 1.6 | 4.8 | 0.00 | 0.38 | 0.00 | 88 | 1010.9 |
| 20260508021304 | 13 | 244 | 1.6 | 4.8 | 0.00 | 0.38 | 0.00 | 88 | 1011.0 |
| 20260508020804 | 13 | 244 | 0.0 | 3.2 | 0.00 | 0.38 | 0.00 | 88 | 1010.9 |
| 20260508020304 | 13 | 244 | 1.6 | 4.8 | 0.00 | 0.38 | 0.00 | 88 | 1010.8 |
| 20260508015804 | 13 | 244 | 0.0 | 1.6 | 0.00 | 0.38 | 0.00 | 88 | 1010.8 |
| 20260508014804 | 13 | 243 | 0.0 | 3.2 | 0.00 | 0.38 | 0.00 | 88 | 1010.8 |
| 20260508014304 | 13 | 243 | 3.2 | 8.0 | 0.00 | 0.38 | 0.00 | 88 | 1011.0 |
| 20260508013304 | 13 | 244 | 1.6 | 4.8 | 0.00 | 0.38 | 0.00 | 88 | 1011.2 |
| 20260508012805 | 13 | 244 | 0.0 | 4.8 | 0.00 | 0.38 | 0.00 | 88 | 1011.2 |
| 20260508011304 | 13 | 244 | 1.6 | 4.8 | 0.00 | 0.38 | 0.00 | 88 | 1011.4 |
| 20260508010804 | 14 | 254 | 3.2 | 4.8 | 0.00 | 0.38 | 0.00 | 88 | 1011.5 |
| 20260508010304 | 14 | 244 | 1.6 | 4.8 | 0.00 | 0.38 | 0.00 | 88 | 1011.6 |
| 20260508005804 | 14 | 243 | 1.6 | 4.8 | 0.00 | 0.38 | 0.00 | 87 | 1011.7 |
| 20260508005306 | 14 | 244 | 0.0 | 4.8 | 0.00 | 0.38 | 0.00 | 87 | 1011.6 |
| 20260508004804 | 14 | 243 | 1.6 | 4.8 | 0.00 | 0.38 | 0.00 | 87 | 1011.6 |
| 20260508004304 | 14 | 243 | 1.6 | 4.8 | 0.00 | 0.38 | 0.00 | 87 | 1011.6 |
| 20260508003804 | 14 | 244 | 3.2 | 8.0 | 0.00 | 0.38 | 0.00 | 87 | 1011.6 |
| 20260508003304 | 14 | 246 | 3.2 | 8.0 | 0.00 | 0.38 | 0.00 | 87 | 1011.6 |
| 20260508002306 | 14 | 243 | 1.6 | 8.0 | 0.00 | 0.38 | 0.00 | 87 | 1011.7 |
| 20260508001804 | 14 | 243 | 1.6 | 4.8 | 0.00 | 0.38 | 0.00 | 87 | 1011.8 |
| 20260508001304 | 14 | 243 | 3.2 | 4.8 | 0.00 | 0.38 | 0.00 | 87 | 1011.9 |
| 20260508000804 | 14 | 243 | 1.6 | 8.0 | 0.00 | 0.38 | 0.00 | 87 | 1011.9 |
| 20260508000305 | 14 | 243 | 1.6 | 4.8 | 0.00 | 0.38 | 0.00 | 88 | 1012.0 |
| 20260507235803 | 14 | 244 | 0.0 | 3.2 | 0.00 | 0.38 | 0.00 | 88 | 1012.0 |
| 20260507235306 | 14 | 243 | 1.6 | 4.8 | 0.00 | 0.38 | 0.00 | 88 | 1011.9 |
| 20260507234804 | 14 | 243 | 1.6 | 4.8 | 0.00 | 0.38 | 0.00 | 88 | 1012.0 |
| 20260507234304 | 14 | 243 | 3.2 | 4.8 | 0.00 | 0.38 | 0.00 | 88 | 1012.0 |
| 20260507233804 | 14 | 243 | 3.2 | 8.0 | 0.00 | 0.38 | 0.00 | 88 | 1012.1 |
| 20260507233304 | 14 | 243 | 3.2 | 8.0 | 0.00 | 0.38 | 0.00 | 89 | 1012.1 |
| 20260507232804 | 14 | 244 | 3.2 | 8.0 | 0.00 | 0.38 | 0.00 | 89 | 1012.1 |
| 20260507232306 | 14 | 243 | 3.2 | 4.8 | 0.00 | 0.38 | 0.00 | 88 | 1012.2 |
| 20260507231804 | 14 | 249 | 3.2 | 4.8 | 0.00 | 0.38 | 0.00 | 89 | 1012.2 |
| 20260507231304 | 14 | 243 | 3.2 | 8.0 | 0.00 | 0.38 | 0.00 | 89 | 1012.3 |
| 20260507230804 | 14 | 257 | 4.8 | 8.0 | 0.00 | 0.38 | 0.00 | 89 | 1012.3 |
| 20260507230304 | 14 | 244 | 0.0 | 8.0 | 0.00 | 0.38 | 0.00 | 89 | 1012.4 |
| 20260507225804 | 14 | 244 | 3.2 | 8.0 | 0.00 | 0.38 | 0.00 | 88 | 1012.2 |
| 20260507224304 | 14 | 293 | 3.2 | 11.3 | 0.00 | 0.38 | 0.00 | 88 | 1012.2 |
| 20260507223803 | 14 | 274 | 3.2 | 9.7 | 0.00 | 0.38 | 0.00 | 88 | 1012.2 |
| 20260507223304 | 14 | 313 | 4.8 | 11.3 | 0.00 | 0.38 | 0.00 | 88 | 1012.2 |